[[{"header":{"parameterUnit":"m.s-1","parameterCategory":1,"la1":30.2991,"la2":30.254,"lo1":-89.0895,"lo2":-89.0444,"dy":0.0017,"dx":0.0017,"nx":28,"ny":28,"refTime":"2023-11-06T09:00:00:Z","depth":0,"parameterNumber":2,"parameterNumberName":"U-component_of_WINDS"},"data":[0,0,0,0,0,0,0,0,0,0,0,0,0,0,0,0,0,0,0,0,0,0,0,0,0,0,0,0,0,0,0,0,0,0,0,0,0,0,0,0,0,0,0,0,0,0,0,0,0,0,0,0,0,0,0,0,0,0,-0.4299,-0.4299,0,-0.4302,-0.4302,-0.4302,-0.4337,-0.4338,-0.4339,-0.4339,-0.4341,-0.434,-0.4339,0,0,0,0,0,0,0,0,0,0,0,0,0,-0.4323,-0.4322,-0.4299,-0.4299,-0.4299,-0.4302,-0.4302,-0.4302,-0.4337,-0.4338,-0.4339,-0.434,-0.4341,-0.434,-0.4339,0,0,0,0,0,0,0,0,0,0,0,0,0,-0.4317,-0.4322,-0.4299,-0.4317,-0.4318,-0.4302,-0.4302,-0.4302,-0.4336,-0.4338,-0.4339,-0.434,-0.4342,-0.434,-0.4339,-0.4305,0,0,-0.4336,-0.4335,0,0,0,0,0,0,0,0,-0.4318,-0.4316,-0.4314,-0.4315,-0.4317,-0.432,-0.4311,-0.4303,-0.4336,-0.4329,-0.4339,-0.4341,-0.4333,-0.4333,-0.433,-0.4305,-0.4305,-0.4336,-0.4335,-0.4334,-0.4334,0,0,0,0,0,0,0,-0.4318,-0.4317,-0.43,-0.4314,-0.4316,-0.4324,-0.4325,-0.4309,-0.4324,-0.433,-0.4333,-0.4333,-0.4334,-0.4331,-0.433,-0.4305,-0.4336,-0.4335,-0.4334,-0.4333,-0.4252,-0.4251,0,0,0,0,0,0,-0.4316,-0.4317,-0.43,-0.43,-0.4321,-0.4323,-0.4323,-0.4318,-0.4324,-0.4326,-0.4331,-0.4334,-0.4333,-0.4332,-0.4331,-0.429,-0.4334,-0.4333,-0.4333,-0.4254,-0.4252,-0.425,0,0,0,0,0,0,-0.4316,-0.4314,-0.43,-0.4309,-0.4308,-0.4321,-0.4314,-0.4317,-0.4314,-0.4325,-0.4328,-0.4326,-0.4334,-0.4332,-0.4311,-0.4291,-0.4333,-0.4332,-0.4255,-0.4253,-0.4251,-0.421,0,0,0,0,0,0,-0.4317,-0.4314,-0.4301,-0.4308,-0.4307,-0.428,-0.4313,-0.4316,-0.4312,-0.4316,-0.432,-0.4322,-0.4334,-0.4313,-0.431,-0.429,-0.4331,-0.4257,-0.4254,-0.4252,-0.4213,-0.4206,-0.4201,0,0,0,0,0,-0.4318,-0.4289,-0.4301,-0.4298,-0.4292,-0.4279,-0.4278,-0.4293,-0.4311,-0.4298,-0.4305,-0.4322,-0.4294,-0.431,-0.4308,-0.4287,-0.4259,-0.4255,-0.4252,-0.4215,-0.4207,-0.4201,0,0,0,0,0,0,-0.4279,-0.4291,-0.4303,-0.4276,-0.4276,-0.4285,-0.4269,-0.4284,-0.4279,-0.4283,-0.4301,-0.4302,-0.4278,-0.4281,-0.4299,-0.4254,-0.4279,-0.4275,-0.4252,-0.4245,-0.4239,-0.4238,-0.433,0,0,0,0,0,-0.4268,-0.4257,-0.4267,-0.4243,-0.4242,-0.4256,-0.4251,-0.4262,-0.4263,-0.4263,-0.4268,-0.4268,-0.4259,-0.4253,-0.4245,-0.4214,-0.4215,-0.4199,-0.4193,-0.4187,-0.4183,-0.4166,-0.4158,-0.424,-0.424,-0.424,0,0,-0.4243,-0.4248,-0.424,-0.4235,-0.4237,-0.4224,-0.4255,-0.4241,-0.4232,-0.4261,-0.4241,-0.4245,-0.4246,-0.4219,-0.4208,-0.4221,-0.4161,-0.4183,-0.4179,-0.4178,-0.4162,-0.4154,-0.4147,-0.4238,-0.4238,-0.4238,0,0,-0.4192,-0.4196,-0.4175,-0.4176,-0.4178,-0.4187,-0.4183,-0.4189,-0.4193,-0.4173,-0.4194,-0.4184,-0.4169,-0.4168,-0.4165,-0.4115,-0.4131,-0.4113,-0.408,-0.4063,-0.4057,-0.4051,-0.4031,-0.4024,-0.4109,-0.4109,-0.4109,0,-0.4162,-0.4144,-0.4163,-0.4147,-0.4144,-0.417,-0.4149,-0.4149,-0.4148,-0.4145,-0.416,-0.4141,-0.4143,-0.4117,-0.4104,-0.4102,-0.4096,-0.4111,-0.4056,-0.4051,-0.4046,-0.4027,-0.402,-0.4106,-0.4107,-0.4107,-0.4107,0,-0.4106,-0.4094,-0.4077,-0.4076,-0.4071,-0.4052,-0.4067,-0.406,-0.4073,-0.408,-0.406,-0.4064,-0.4058,-0.4053,-0.4065,-0.4028,-0.4035,-0.4053,-0.4079,-0.4035,-0.4018,-0.4011,-0.4103,-0.4104,-0.4104,-0.4105,0,0,-0.4029,-0.4039,-0.4032,-0.4031,-0.4036,-0.4027,-0.401,-0.4004,-0.3997,-0.3996,-0.3981,-0.3968,-0.3984,-0.3981,-0.3994,-0.3979,-0.3937,-0.3999,-0.3999,-0.3985,-0.3895,-0.388,-0.3872,-0.3949,-0.3948,-0.3947,-0.3895,0,-0.3979,-0.395,-0.3966,-0.3935,-0.3923,-0.3948,-0.3933,-0.3934,-0.3941,-0.3932,-0.394,-0.393,-0.3953,-0.3951,-0.3938,-0.3945,-0.3919,-0.395,-0.3934,-0.3933,-0.393,-0.3863,-0.3847,-0.3798,-0.3888,-0.3887,-0.3886,0,-0.3915,-0.3912,-0.3879,-0.3886,-0.3882,-0.3868,-0.3863,-0.3855,-0.3856,-0.3863,-0.386,-0.3876,-0.3859,-0.3886,-0.3863,-0.3883,-0.3878,-0.388,-0.3879,-0.3876,-0.3905,-0.3857,-0.3783,-0.3774,-0.3876,-0.3877,-0.3878,0,-0.386,-0.3848,-0.3826,-0.3825,-0.3833,-0.3822,-0.3825,-0.3828,-0.3823,-0.382,-0.3817,-0.3811,-0.3807,-0.3803,-0.3816,-0.3835,-0.379,-0.3819,-0.3794,-0.3793,-0.3781,-0.3781,-0.3703,-0.3782,-0.3782,-0.3782,-0.3782,0,-0.3801,-0.3779,-0.3801,-0.3788,-0.3765,-0.3784,-0.376,-0.3766,-0.3768,-0.3756,-0.3779,-0.3766,-0.3787,-0.3776,-0.3787,-0.3765,-0.3764,-0.3768,-0.377,-0.3764,-0.3763,-0.3759,-0.3762,-0.378,-0.378,-0.3781,-0.3781,0,-0.3734,-0.3748,-0.3726,-0.3736,-0.3738,-0.372,-0.3727,-0.3715,-0.3725,-0.3709,-0.3706,-0.372,-0.3709,-0.3723,-0.3714,-0.3721,-0.3691,-0.37,-0.369,-0.3691,-0.3665,-0.3666,-0.3579,-0.3568,-0.3656,-0.3655,-0.3654,0,-0.3694,-0.3678,-0.3686,-0.368,-0.3681,-0.367,-0.3666,-0.3685,-0.3679,-0.368,-0.3667,-0.3658,-0.3652,-0.3634,-0.3642,-0.3635,-0.3643,-0.3613,-0.3642,-0.3636,-0.364,-0.364,-0.3638,-0.3606,-0.3605,-0.3604,-0.3604,0,-0.3621,-0.3629,-0.3622,-0.3616,-0.361,-0.3607,-0.3606,-0.3599,-0.3619,-0.3611,-0.36,-0.3596,-0.3586,-0.3577,-0.3572,-0.3575,-0.3592,-0.3595,-0.3588,-0.3581,-0.3575,-0.3576,-0.3671,-0.3596,-0.3597,-0.3598,-0.3598,-0.3598,-0.3565,-0.3552,-0.3555,-0.3546,-0.3547,-0.3545,-0.3534,-0.3542,-0.3534,-0.3527,-0.3539,-0.3525,-0.3528,-0.3523,-0.3524,-0.3513,-0.3526,-0.3517,-0.3514,-0.3511,-0.3506,-0.3579,-0.3512,-0.3513,-0.3513,-0.3513,-0.3513,0,-0.3492,-0.3495,-0.3487,-0.3484,-0.3477,-0.3495,-0.3495,-0.3487,-0.3475,-0.3476,-0.3469,-0.3457,-0.3448,-0.3457,-0.3449,-0.3439,-0.3446,-0.3436,-0.3436,-0.3436,-0.3496,-0.3501,-0.343,-0.343,-0.343,-0.343,-0.343,-0.343,-0.3452,-0.343,-0.3439,-0.3418,-0.3422,-0.3408,-0.3406,-0.3404,-0.3405,-0.339,-0.3383,-0.3389,-0.3393,-0.3386,-0.3379,-0.3382,-0.3377,-0.3363,-0.3368,-0.3424,-0.3432,-0.3439,-0.3444,-0.3362,-0.3362,-0.3309,-0.3309,-0.3308]},{"header":{"parameterUnit":"m.s-1","parameterCategory":1,"la1":30.2991,"la2":30.254,"lo1":-89.0895,"lo2":-89.0444,"dy":0.0017,"dx":0.0017,"nx":28,"ny":28,"refTime":"2023-11-06T09:00:00:Z","depth":0,"parameterNumber":3,"parameterNumberName":"V-component_of_WINDS"},"data":[0,0,0,0,0,0,0,0,0,0,0,0,0,0,0,0,0,0,0,0,0,0,0,0,0,0,0,0,0,0,0,0,0,0,0,0,0,0,0,0,0,0,0,0,0,0,0,0,0,0,0,0,0,0,0,0,0,0,2.0376,2.0376,0,2.0363,2.0363,2.0363,2.0324,2.0323,2.0323,2.0322,2.031,2.031,2.0311,0,0,0,0,0,0,0,0,0,0,0,0,0,2.0368,2.0368,2.0376,2.0376,2.0375,2.0363,2.0363,2.0363,2.0324,2.0323,2.0322,2.0321,2.031,2.031,2.0311,0,0,0,0,0,0,0,0,0,0,0,0,0,2.0365,2.0369,2.0376,2.0355,2.0353,2.0363,2.0363,2.0363,2.0325,2.0323,2.0322,2.0321,2.031,2.031,2.0311,2.0341,0,0,2.0313,2.0313,0,0,0,0,0,0,0,0,2.0365,2.0365,2.0358,2.0356,2.0354,2.0344,2.0356,2.0355,2.0325,2.0335,2.0322,2.032,2.0322,2.0322,2.0322,2.034,2.034,2.0313,2.0314,2.0314,2.0314,0,0,0,0,0,0,0,2.0366,2.0366,2.0371,2.0358,2.0356,2.0346,2.0345,2.0355,2.0336,2.0334,2.0332,2.033,2.0321,2.0322,2.0322,2.034,2.0313,2.0314,2.0314,2.0314,2.0382,2.0383,0,0,0,0,0,0,2.0369,2.0366,2.0371,2.037,2.0357,2.0348,2.0346,2.0348,2.0336,2.0333,2.0332,2.0329,2.0321,2.0321,2.0321,2.0356,2.0314,2.0315,2.0315,2.0381,2.0382,2.0384,0,0,0,0,0,0,2.0369,2.0369,2.0372,2.0367,2.0367,2.0349,2.0353,2.0349,2.035,2.0334,2.033,2.0336,2.032,2.032,2.0336,2.0355,2.0315,2.0315,2.0379,2.0381,2.0383,2.0425,0,0,0,0,0,0,2.0369,2.037,2.038,2.0368,2.0367,2.0387,2.0354,2.035,2.0351,2.0347,2.0337,2.0334,2.0319,2.0335,2.0337,2.0355,2.0316,2.0377,2.038,2.0382,2.0422,2.0428,2.0434,0,0,0,0,0,2.0368,2.0393,2.0381,2.0382,2.038,2.0388,2.0387,2.037,2.0352,2.0363,2.0353,2.0334,2.0353,2.0337,2.0339,2.0357,2.0376,2.0379,2.0382,2.0419,2.0427,2.0434,0,0,0,0,0,0,2.0408,2.0391,2.0378,2.0399,2.0395,2.0381,2.0394,2.0378,2.0379,2.0376,2.0354,2.0352,2.0371,2.0366,2.0349,2.0386,2.0361,2.0365,2.0389,2.0396,2.0402,2.0403,2.0317,0,0,0,0,0,2.0419,2.0426,2.0411,2.0431,2.043,2.0413,2.0415,2.0402,2.0397,2.0395,2.0386,2.0383,2.0388,2.0392,2.0395,2.0421,2.0419,2.0435,2.044,2.0445,2.0449,2.0463,2.047,2.0394,2.0394,2.0394,0,0,2.0443,2.0434,2.044,2.0439,2.0434,2.0443,2.0412,2.0421,2.0427,2.0397,2.0412,2.0405,2.04,2.0421,2.043,2.0417,2.0469,2.0449,2.0453,2.0454,2.0467,2.0474,2.048,2.0396,2.0396,2.0395,0,0,2.0489,2.0483,2.05,2.0496,2.0489,2.0478,2.0482,2.0471,2.0465,2.0479,2.0457,2.0464,2.0473,2.047,2.047,2.0516,2.0499,2.0518,2.0549,2.0563,2.0569,2.0574,2.0592,2.0598,2.0522,2.0522,2.0522,0,2.0519,2.053,2.051,2.0522,2.0522,2.0495,2.0512,2.0509,2.0504,2.0506,2.0491,2.0502,2.0496,2.0517,2.0528,2.0529,2.0533,2.0519,2.057,2.0575,2.0579,2.0596,2.0602,2.0524,2.0524,2.0524,2.0523,0,2.0568,2.0576,2.059,2.0586,2.0588,2.0602,2.0585,2.059,2.0576,2.0566,2.0582,2.0574,2.0576,2.058,2.0567,2.0599,2.0591,2.0574,2.0548,2.0589,2.0604,2.061,2.0528,2.0527,2.0526,2.0525,0,0,2.064,2.0624,2.063,2.0628,2.0619,2.0625,2.0638,2.064,2.0645,2.0642,2.0653,2.0662,2.0646,2.0646,2.0632,2.0644,2.0682,2.0625,2.0625,2.0636,2.0718,2.0732,2.0739,2.067,2.0672,2.0672,2.0719,0,2.0684,2.0706,2.0688,2.0713,2.0721,2.0695,2.0706,2.0702,2.0694,2.0699,2.069,2.0696,2.0674,2.0674,2.0685,2.0675,2.0698,2.0672,2.0681,2.0682,2.0684,2.0747,2.0761,2.0805,2.0724,2.0725,2.0726,0,2.0739,2.074,2.0765,2.0755,2.0758,2.0768,2.0769,2.0774,2.0769,2.0762,2.0763,2.0746,2.0759,2.0733,2.0751,2.0733,2.0736,2.0732,2.0734,2.0734,2.0707,2.075,2.0818,2.0825,2.0735,2.0734,2.0733,0,2.079,2.0797,2.0813,2.0812,2.08,2.0809,2.0804,2.0798,2.0801,2.0801,2.0802,2.0805,2.0806,2.0808,2.0793,2.0776,2.0813,2.0786,2.0808,2.0808,2.0817,2.0817,2.0888,2.0818,2.0818,2.0818,2.0818,0,2.0842,2.0859,2.0836,2.0846,2.0864,2.0844,2.0863,2.0856,2.0851,2.0859,2.0837,2.0846,2.0824,2.0831,2.0819,2.0836,2.0837,2.0832,2.0829,2.0834,2.0835,2.0836,2.0833,2.082,2.0819,2.0819,2.0819,0,2.0902,2.0887,2.0903,2.0891,2.0888,2.0902,2.0892,2.0901,2.0891,2.0902,2.0904,2.0888,2.0895,2.0879,2.0884,2.0876,2.09,2.0892,2.0902,2.09,2.0923,2.0921,2.0997,2.1007,2.093,2.0931,2.0932,0,2.0937,2.0949,2.0938,2.0943,2.0939,2.0946,2.0948,2.0929,2.0933,2.0928,2.0938,2.0943,2.0946,2.0958,2.0947,2.0951,2.0943,2.0969,2.0943,2.0949,2.0944,2.0944,2.0945,2.0975,2.0976,2.0977,2.0977,0,2.1001,2.0993,2.0996,2.0998,2.1001,2.1002,2.1,2.1005,2.0985,2.099,2.0996,2.0998,2.1003,2.1008,2.101,2.1005,2.0989,2.0986,2.0991,2.0997,2.1003,2.1001,2.0918,2.0984,2.0983,2.0983,2.0983,2.0982,2.1049,2.1059,2.1053,2.1059,2.1056,2.1055,2.1063,2.1054,2.1059,2.1061,2.105,2.1059,2.1054,2.1054,2.1052,2.1059,2.1047,2.1055,2.1057,2.1059,2.1063,2.1001,2.1059,2.1059,2.1059,2.1059,2.1058,0,2.1113,2.1107,2.1112,2.1111,2.1116,2.1099,2.1096,2.1101,2.111,2.1107,2.111,2.1118,2.1123,2.1113,2.1116,2.1124,2.1117,2.1126,2.1126,2.1125,2.1073,2.1069,2.1132,2.1132,2.1132,2.1132,2.1132,2.1132,2.1146,2.1162,2.1154,2.1168,2.1163,2.1172,2.1172,2.1172,2.1169,2.1179,2.1183,2.1176,2.117,2.1173,2.1178,2.1174,2.1177,2.119,2.1184,2.1136,2.1129,2.1122,2.1117,2.119,2.119,2.1235,2.1236,2.1236]}]]